Albertville, AL

4:45 AM CST on February 25, 2017 (GMT -0600)
Albertville

Weather History for K8A0 - March, 2013

Change the Weather History Date:

Tuesday, March 5, 2013

  Actual Average (KGAD) Record (KGAD)
Temperature  
Mean Temperature 48 °F -  
Max Temperature 60 °F 58 °F 80 °F (1938)
Min Temperature 35 °F 36 °F 17 °F (2002)
Degree Days  
Heating Degree Days 18    
Moisture  
Dew Point 43 °F    
Average Humidity 81    
Maximum Humidity 100    
Minimum Humidity 70    
Precipitation  
Precipitation 0.33 in - - ()
Sea Level Pressure  
Sea Level Pressure 29.90 in    
Wind  
Wind Speed 13 mph (SW)    
Max Wind Speed 34 mph    
Max Gust Speed 44 mph    
Visibility 10 miles    
Events Rain , Thunderstorm    
Averages and records for this station are not official NWS values.
T = Trace of Precipitation, MM = Missing Value Source: NWS Daily Summary

Daily Weather History Graph

Daily Weather History Graph

Search for Another Location

Airport or City:

Trip Planner

Search our weather history database for the weather conditions in past years. The results will help you decide how hot, cold, wet, or windy it might be!

Date:

Astronomy

Mar. 05, 2013 Rise Set
Actual Time 6:08 AM CST 5:44 PM CST
Civil Twilight 5:43 AM CST 6:09 PM CST
Nautical Twilight 5:14 AM CST 6:39 PM CST
Astronomical Twilight 4:45 AM CST 7:08 PM CST
Moon 1:08 AM CST (3/5) 11:34 AM CST (3/5)
Length of Visible Light 12h 26m
Length of Day
11h 36m
Last Quarter, 40% of the Moon is Illuminated
Mar 5
Last Quarter
Mar 11
New
Mar 19
First Quarter
Mar 27
Full
Apr 2
Last Quarter

Hourly Weather History & Observations

Time (CST) Temp. Windchill Dew Point Humidity Pressure Visibility Wind Dir Wind Speed Gust Speed Precip Events Conditions
12:35 AM 51.8 °F - 42.8 °F 71% 29.94 in 10.0 mi South 12.7 mph 23.0 mph N/A   Scattered Clouds
12:55 AM 51.8 °F - 42.8 °F 71% 29.95 in 10.0 mi South 10.4 mph 19.6 mph N/A   Mostly Cloudy
1:35 AM 51.8 °F - 44.6 °F 76% 29.95 in 10.0 mi South 10.4 mph 23.0 mph N/A   Overcast
1:55 AM 51.8 °F - 44.6 °F 76% 29.94 in 10.0 mi South 10.4 mph - N/A   Overcast
2:15 AM 51.8 °F - 44.6 °F 76% 29.94 in 10.0 mi South 10.4 mph 17.3 mph N/A   Overcast
2:35 AM 51.8 °F - 44.6 °F 76% 29.92 in 10.0 mi South 11.5 mph - N/A   Overcast
2:55 AM 51.8 °F - 44.6 °F 76% 29.92 in 10.0 mi South 9.2 mph - N/A   Overcast
3:15 AM 51.8 °F - 44.6 °F 76% 29.93 in 10.0 mi South 8.1 mph - N/A   Overcast
3:35 AM 51.8 °F - 46.4 °F 82% 29.93 in 10.0 mi South 10.4 mph - N/A   Overcast
3:55 AM 51.8 °F - 46.4 °F 82% 29.92 in 10.0 mi South 10.4 mph - N/A   Overcast
4:35 AM 51.8 °F - 46.4 °F 82% 29.93 in 10.0 mi South 8.1 mph - N/A   Overcast
4:55 AM 51.8 °F - 46.4 °F 82% 29.93 in 10.0 mi South 9.2 mph - N/A   Overcast
5:15 AM 51.8 °F - 46.4 °F 82% 29.92 in 10.0 mi South 8.1 mph - N/A   Overcast
5:35 AM 53.6 °F - 48.2 °F 82% 29.93 in 10.0 mi South 9.2 mph - N/A   Overcast
5:55 AM 53.6 °F - 48.2 °F 82% 29.92 in 10.0 mi South 9.2 mph - N/A   Overcast
6:55 AM 53.6 °F - 50.0 °F 88% 29.90 in 10.0 mi South 10.4 mph 16.1 mph N/A   Overcast
7:15 AM 53.6 °F - 50.0 °F 88% 29.91 in 10.0 mi South 11.5 mph - N/A   Overcast
7:35 AM 55.4 °F - 51.8 °F 88% 29.90 in 10.0 mi South 12.7 mph 16.1 mph N/A   Overcast
7:55 AM 59.0 °F - 51.8 °F 77% 29.89 in 10.0 mi South 13.8 mph 20.7 mph N/A   Overcast
8:15 AM 57.2 °F - 50.0 °F 77% 29.88 in 10.0 mi South 10.4 mph - N/A   Overcast
8:35 AM 55.4 °F - 50.0 °F 82% 29.87 in 10.0 mi South 11.5 mph - N/A   Overcast
8:55 AM 55.4 °F - 51.8 °F 88% 29.87 in 10.0 mi South 10.4 mph - N/A   Overcast
9:15 AM 57.2 °F - 51.8 °F 82% 29.86 in 10.0 mi South 11.5 mph 18.4 mph N/A   Overcast
9:35 AM 57.2 °F - 51.8 °F 82% 29.86 in 10.0 mi South 9.2 mph 18.4 mph N/A   Overcast
9:55 AM 59.0 °F - 51.8 °F 77% 29.85 in 10.0 mi South 9.2 mph - N/A   Overcast
10:15 AM 59.0 °F - 51.8 °F 77% 29.84 in 10.0 mi SW 18.4 mph 28.8 mph N/A   Overcast
10:35 AM 60.8 °F - 53.6 °F 77% 29.84 in 10.0 mi SSW 12.7 mph 28.8 mph N/A Thunderstorm Overcast
10:55 AM 60.8 °F - 53.6 °F 77% 29.82 in 10.0 mi SW 18.4 mph 24.2 mph N/A   Overcast
11:15 AM 60.8 °F - 53.6 °F 77% 29.80 in 10.0 mi SSW 20.7 mph 27.6 mph N/A   Overcast
11:35 AM 60.8 °F - 53.6 °F 77% 29.77 in 10.0 mi SSW 13.8 mph 25.3 mph N/A   Overcast
11:55 AM 60.8 °F - 53.6 °F 77% 29.74 in 10.0 mi SSW 11.5 mph 21.9 mph N/A   Overcast
12:15 PM 60.8 °F - 53.6 °F 77% 29.74 in 10.0 mi SSW 17.3 mph 21.9 mph N/A Thunderstorm Overcast
12:35 PM 60.8 °F - 53.6 °F 77% 29.73 in 7.0 mi SSW 18.4 mph 25.3 mph N/A Rain Light Rain
12:55 PM 60.8 °F - 53.6 °F 77% 29.70 in 10.0 mi SSW 16.1 mph 26.5 mph N/A Rain Light Rain
1:15 PM 60.8 °F - 55.4 °F 82% 29.69 in 5.0 mi SW 17.3 mph 25.3 mph 0.06 in Rain , Thunderstorm Thunderstorms and Rain
1:35 PM 59.0 °F - 59.0 °F 100% 29.73 in 1.8 mi West 31.1 mph 39.1 mph 0.30 in Rain Rain
1:55 PM 55.4 °F - 55.4 °F 100% 29.77 in 4.0 mi WNW 18.4 mph 36.8 mph 0.33 in Rain , Thunderstorm Rain
2:15 PM 55.4 °F - 55.4 °F 100% 29.76 in 10.0 mi West 21.9 mph 31.1 mph N/A   Overcast
2:35 PM 55.4 °F - 50.0 °F 82% 29.78 in 10.0 mi WNW 27.6 mph 39.1 mph N/A   Mostly Cloudy
2:55 PM 53.6 °F - 46.4 °F 77% 29.80 in 10.0 mi West 34.5 mph 41.4 mph N/A Thunderstorm Mostly Cloudy
3:15 PM 50.0 °F - 44.6 °F 82% 29.83 in 10.0 mi WNW 17.3 mph 31.1 mph N/A   Overcast
3:35 PM 48.2 °F - 41.0 °F 76% 29.86 in 10.0 mi WNW 23.0 mph 43.7 mph N/A   Overcast
3:55 PM 44.6 °F 36.9 °F 39.2 °F 81% 29.87 in 10.0 mi WNW 18.4 mph 32.2 mph N/A   Overcast
4:15 PM 44.6 °F 35.9 °F 39.2 °F 81% 29.90 in 10.0 mi NW 23.0 mph 28.8 mph N/A   Overcast
4:35 PM 42.8 °F 33.8 °F 37.4 °F 81% 29.93 in 10.0 mi WNW 21.9 mph 32.2 mph N/A   Overcast
4:55 PM 41.0 °F 32.5 °F 35.6 °F 81% 29.94 in 10.0 mi NW 17.3 mph 26.5 mph N/A   Overcast
5:15 PM 39.2 °F 28.7 °F 35.6 °F 87% 29.97 in 10.0 mi WNW 23.0 mph 28.8 mph N/A   Overcast
5:35 PM 39.2 °F 28.7 °F 32.0 °F 75% 29.98 in 10.0 mi WNW 23.0 mph 36.8 mph N/A   Overcast
5:55 PM 37.4 °F 27.5 °F 32.0 °F 81% 30.00 in 10.0 mi WNW 18.4 mph 29.9 mph N/A   Overcast
6:15 PM 37.4 °F 27.8 °F 32.0 °F 81% 30.01 in 10.0 mi WNW 17.3 mph 28.8 mph N/A   Overcast
6:35 PM 39.2 °F 33.0 °F 32.0 °F 75% 30.01 in 10.0 mi WNW 9.2 mph 25.3 mph N/A   Overcast
6:55 PM 39.2 °F 30.8 °F 30.2 °F 70% 30.00 in 10.0 mi WNW 15.0 mph 24.2 mph N/A   Overcast
7:15 PM 37.4 °F 28.9 °F 32.0 °F 81% 30.00 in 10.0 mi WNW 13.8 mph 24.2 mph N/A   Overcast
7:35 PM 37.4 °F 30.8 °F 32.0 °F 81% 30.00 in 10.0 mi West 9.2 mph - N/A   Mostly Cloudy
7:55 PM 37.4 °F 30.3 °F 32.0 °F 81% 30.00 in 10.0 mi WNW 10.4 mph 16.1 mph N/A   Mostly Cloudy
8:15 PM 37.4 °F 30.3 °F 32.0 °F 81% 30.00 in 10.0 mi West 10.4 mph - N/A   Overcast
8:35 PM 37.4 °F 30.3 °F 32.0 °F 81% 30.00 in 10.0 mi West 10.4 mph - N/A   Mostly Cloudy
8:55 PM 37.4 °F 31.4 °F 32.0 °F 81% 30.00 in 10.0 mi West 8.1 mph - N/A   Mostly Cloudy
9:15 PM 37.4 °F 31.4 °F 32.0 °F 81% 30.00 in 10.0 mi West 8.1 mph - N/A   Overcast
9:35 PM 37.4 °F 30.8 °F 32.0 °F 81% 30.00 in 10.0 mi West 9.2 mph - N/A   Overcast
9:55 PM 35.6 °F 28.0 °F 32.0 °F 87% 29.99 in 10.0 mi West 10.4 mph - N/A   Scattered Clouds
10:15 PM 35.6 °F 27.1 °F 32.0 °F 87% 29.99 in 10.0 mi West 12.7 mph - N/A   Clear
10:35 PM 35.6 °F 27.5 °F 32.0 °F 87% 29.99 in 10.0 mi West 11.5 mph - N/A   Clear
10:55 PM 35.6 °F 27.1 °F 32.0 °F 87% 29.99 in 10.0 mi West 12.7 mph 17.3 mph N/A   Scattered Clouds
11:15 PM 35.6 °F 27.1 °F 32.0 °F 87% 29.98 in 10.0 mi West 12.7 mph - N/A   Mostly Cloudy
11:35 PM 35.6 °F 27.5 °F 30.2 °F 81% 29.99 in 10.0 mi WNW 11.5 mph 17.3 mph N/A   Mostly Cloudy
11:55 PM 35.6 °F 25.9 °F 30.2 °F 81% 29.99 in 10.0 mi WNW 16.1 mph 21.9 mph N/A   Overcast